Total_Precipitation_Accumulation
1.57 1.55 2.15 2.05 1.86 1.78 1.65 1.62 1.48 1.37 1.29 1.12 0.99 0.86 0.78 0.74 0.71 0.72 0.68 0.59 0.57 0.57 0.54 0.61 0.72 0.64 0.63 0.64 0.64 0.67 0.75 0.82 0.75 0.65 0.66 0.69 0.74 0.94 1.07 1.17 1.31 1.31 1.17
1.21 1.50 2.26 2.14 1.96 1.82 1.69 1.65 1.49 1.25 1.06 0.95 0.89 0.82 0.73 0.68 0.69 0.66 0.59 0.55 0.54 0.51 0.51 0.63 0.73 0.73 0.73 0.76 0.81 0.86 0.90 0.86 0.80 0.73 0.86 0.92 0.92 1.06 1.11 1.18 1.47 1.44 1.15
1.12 1.33 1.76 2.22 2.06 1.83 1.70 1.62 1.47 1.26 0.97 0.82 0.77 0.77 0.68 0.60 0.60 0.58 0.58 0.52 0.53 0.53 0.52 0.60 0.70 0.69 0.72 0.79 0.88 0.90 0.91 0.89 0.83 0.92 1.40 1.92 1.51 1.23 1.12 1.20 1.31 1.19 1.05
1.06 1.22 1.41 2.00 1.94 1.81 1.71 1.55 1.55 1.30 0.97 0.84 0.79 0.74 0.65 0.59 0.63 0.68 0.67 0.58 0.55 0.55 0.52 0.55 0.66 0.64 0.65 0.73 0.76 0.77 0.84 0.90 0.96 1.24 1.82 2.27 2.05 1.54 1.37 1.26 1.21 1.14 1.04
1.04 1.20 1.70 2.08 1.79 1.65 1.52 1.47 1.53 1.35 1.12 0.97 0.84 0.74 0.68 0.63 0.64 0.71 0.65 0.63 0.62 0.60 0.61 0.63 0.67 0.65 0.60 0.61 0.65 0.70 0.85 1.09 1.27 1.36 1.71 1.98 2.12 1.79 1.46 1.28 1.22 1.16 1.18
1.05 1.20 1.56 1.79 1.63 1.52 1.45 1.38 1.35 1.36 1.33 1.11 0.92 0.85 0.82 0.75 0.74 0.77 0.77 0.69 0.70 0.70 0.73 0.70 0.66 0.67 0.65 0.66 0.68 0.77 0.96 1.21 1.29 1.40 1.71 1.89 1.90 1.67 1.37 1.25 1.30 1.39 1.42
0.90 1.03 1.28 1.55 1.46 1.38 1.35 1.32 1.24 1.29 1.36 1.22 0.95 0.94 0.95 0.87 0.84 0.85 0.86 0.75 0.76 0.76 0.77 0.78 0.71 0.70 0.69 0.71 0.76 0.88 1.02 1.08 1.09 1.36 1.70 1.97 1.72 1.49 1.37 1.25 1.26 1.48 1.63
0.95 0.92 1.04 1.33 1.38 1.27 1.29 1.35 1.20 1.17 1.25 1.18 1.03 0.97 0.89 0.88 0.91 0.91 0.86 0.81 0.79 0.82 0.83 0.84 0.83 0.76 0.72 0.75 0.84 0.99 1.09 1.01 0.87 1.03 1.25 1.74 1.98 1.79 1.43 1.22 1.24 1.35 1.53
1.29 1.16 0.99 1.00 1.12 1.15 1.20 1.30 1.23 1.16 1.15 1.08 1.10 1.05 0.99 0.96 0.90 0.84 0.84 0.85 0.84 0.86 0.87 0.84 0.80 0.78 0.79 0.83 0.85 0.92 1.00 0.99 0.95 0.98 1.01 1.55 1.97 1.88 1.48 1.21 1.18 1.39 1.51
1.34 1.22 1.04 0.95 0.94 1.02 0.96 1.07 1.26 1.29 1.20 1.08 1.05 1.05 1.04 0.99 0.88 0.82 0.76 0.80 0.87 0.90 0.95 0.93 0.86 0.86 0.88 0.85 0.84 0.90 0.96 0.88 0.77 0.79 0.98 1.41 1.95 1.97 1.70 1.26 1.06 1.09 1.20
1.11 1.05 0.98 0.95 0.95 1.03 1.07 1.04 1.25 1.32 1.21 1.02 0.91 0.95 0.97 0.82 0.83 0.84 0.75 0.90 0.93 1.00 1.04 1.03 0.99 0.97 0.92 0.89 0.93 1.01 0.89 0.70 0.79 0.81 1.02 1.45 1.82 1.91 1.80 1.43 1.07 0.98 1.03
0.87 0.80 0.76 0.76 0.82 0.92 1.01 1.36 1.56 1.34 1.22 0.95 0.94 0.84 0.89 0.96 1.03 0.86 0.82 1.02 1.07 1.13 1.10 1.10 1.13 1.02 0.86 0.73 0.83 0.91 0.77 0.73 0.77 0.76 1.02 1.47 1.74 1.80 1.71 1.50 1.22 1.08 1.11
0.66 0.58 0.54 0.51 0.53 0.61 0.81 1.15 1.44 1.55 1.52 1.43 1.19 0.96 0.97 0.85 0.74 0.68 0.70 0.82 0.93 1.03 1.01 1.02 1.04 0.87 0.78 0.74 0.70 0.68 0.79 0.78 0.85 0.88 1.11 1.46 1.67 1.79 1.73 1.54 1.32 1.21 1.21
0.62 0.57 0.50 0.47 0.43 0.44 0.53 0.71 0.91 1.05 1.14 1.16 1.01 0.91 0.98 0.87 0.76 0.77 0.76 0.77 0.79 0.90 1.04 1.06 1.02 0.88 0.77 0.68 0.64 0.70 0.77 0.76 0.92 1.14 1.30 1.30 1.48 1.72 1.79 1.63 1.46 1.33 1.30
0.71 0.72 0.62 0.50 0.46 0.44 0.48 0.56 0.64 0.79 0.87 0.90 0.93 0.88 0.91 0.92 0.89 0.86 0.78 0.79 0.74 0.84 0.97 1.06 1.01 0.90 0.87 0.80 0.74 0.84 0.90 0.97 1.03 1.09 1.18 1.19 1.37 1.68 1.92 1.89 1.69 1.48 1.39
0.74 0.73 0.71 0.60 0.56 0.51 0.48 0.52 0.55 0.65 0.74 0.78 0.76 0.76 0.86 0.95 0.94 0.91 0.86 0.88 0.86 0.90 1.03 1.03 0.93 0.98 1.00 0.92 0.78 0.79 0.88 0.96 1.02 1.04 1.08 1.19 1.25 1.35 1.76 2.02 1.99 1.79 1.73
0.72 0.68 0.66 0.66 0.65 0.64 0.61 0.59 0.57 0.64 0.74 0.76 0.73 0.68 0.70 0.79 0.84 0.87 0.88 0.89 0.94 1.03 1.09 1.12 0.95 0.98 0.96 0.88 0.82 0.77 0.77 0.82 0.89 0.95 0.92 0.90 0.98 1.12 1.43 1.82 2.12 2.05 2.05
0.58 0.55 0.58 0.59 0.63 0.69 0.71 0.72 0.73 0.73 0.80 0.77 0.76 0.69 0.64 0.69 0.77 0.90 0.92 0.91 0.94 1.07 1.17 1.22 1.13 1.10 1.04 0.99 0.96 0.88 0.81 0.87 0.84 0.89 0.89 0.83 0.96 0.92 1.11 1.32 1.60 1.82 2.03
0.48 0.47 0.50 0.53 0.54 0.65 0.73 0.76 0.84 0.86 0.87 0.85 0.84 0.74 0.71 0.77 0.84 1.01 1.13 1.15 1.14 1.16 1.16 1.12 1.18 1.19 1.17 1.17 1.09 1.03 0.94 0.91 0.96 0.87 0.89 0.93 0.87 0.90 0.99 0.90 1.00 1.21 1.60
0.40 0.41 0.44 0.48 0.50 0.57 0.70 0.82 0.97 1.09 1.05 1.07 1.01 0.89 0.91 1.05 1.19 1.33 1.35 1.43 1.49 1.38 1.36 1.31 1.33 1.27 1.20 1.25 1.15 1.05 0.96 0.88 0.98 1.00 0.98 0.99 0.94 0.88 0.98 0.94 0.92 0.87 1.12
0.29 0.32 0.37 0.40 0.47 0.54 0.61 0.75 0.97 1.24 1.35 1.44 1.40 1.22 1.16 1.28 1.52 1.74 1.71 1.77 1.81 1.70 1.68 1.71 1.92 1.87 1.59 1.35 1.40 1.24 1.04 0.89 1.02 1.06 1.04 1.07 1.08 1.14 1.20 1.11 1.00 0.99 0.89
0.21 0.23 0.28 0.35 0.45 0.52 0.60 0.78 0.94 1.08 1.08 1.26 1.41 1.39 1.30 1.29 1.44 1.58 1.84 1.95 1.89 1.93 2.07 2.08 2.43 2.58 2.12 1.68 1.69 1.83 1.56 1.33 1.07 0.93 0.99 1.01 1.12 1.33 1.34 1.13 1.04 0.99 0.91
0.16 0.17 0.21 0.28 0.39 0.51 0.65 0.88 1.09 1.28 1.36 1.42 1.35 1.43 1.44 1.37 1.41 1.51 1.67 1.83 1.85 1.93 2.03 2.17 2.51 3.00 2.77 2.20 1.93 2.15 1.89 1.67 1.45 1.10 0.96 0.99 1.11 1.34 1.50 1.37 1.26 1.17 1.01
0.17 0.16 0.20 0.28 0.42 0.62 0.83 1.07 1.31 1.52 1.56 1.44 1.48 1.51 1.40 1.34 1.31 1.37 1.52 1.66 1.79 1.81 1.95 2.05 2.17 2.68 3.04 2.72 2.40 2.04 1.70 1.64 1.75 1.54 1.20 1.15 1.19 1.25 1.34 1.31 1.30 1.38 1.26
0.24 0.24 0.32 0.51 0.75 1.00 1.21 1.46 1.73 1.72 1.61 1.51 1.51 1.48 1.43 1.44 1.40 1.40 1.54 1.62 1.64 1.69 1.80 2.13 2.39 2.65 2.86 2.83 2.74 2.54 2.26 1.97 1.64 1.75 1.68 1.45 1.34 1.24 1.25 1.30 1.32 1.38 1.40
0.53 0.66 0.86 1.13 1.32 1.41 1.53 1.68 1.79 1.74 1.75 1.68 1.50 1.40 1.40 1.45 1.51 1.54 1.60 1.61 1.59 1.62 1.73 1.95 2.24 2.45 2.76 2.94 2.83 2.61 2.48 2.35 2.13 1.99 1.77 1.64 1.62 1.42 1.32 1.32 1.26 1.30 1.41